Regional Weather Roundup
Issued by NWS

Home | Current Version | Previous Version | Text Only | Print | Product List | Glossary Off
Versions: 1 2 3 4 5 6 7 8 9 10 11 12 13 14 15 16 17 18 19 20 21 22 23 24 25 26 27 28 29 30 31 32 33 34 35 36 37 38 39 40 41 42 43 44 45 46 47 48 49 50

000
ASUS43 KDTX 230210
RWRMI
MICHIGAN HOURLY REGIONAL WEATHER ROUNDUP
NATIONAL WEATHER SERVICE DETROIT/PONTIAC MI
900 PM EST SAT NOV 22 2014

NOTE: "FAIR" INDICATES FEW OR NO CLOUDS BELOW 12,000 FEET WITH NO
SIGNIFICANT WEATHER AND/OR OBSTRUCTION TO VISIBILITY.

MIZ047>049-052>055-059>063-066>070-074>076-081>083-230300-
SOUTHEAST LOWER MICHIGAN

CITY           SKY/WX    TMP DP  RH WIND       PRES   REMARKS
ADRIAN         CLOUDY    47  42  83 SW12      29.96S
ALMA           CLOUDY    42  42 100 S7        29.87S FOG
ANN ARBOR      CLOUDY    47  42  83 SW9       29.94F
BAD AXE        CLOUDY    43  43 100 SW9       29.87F FOG
DETROIT CITY   CLOUDY    48  43  82 SW9       29.94F
DETROIT        CLOUDY    47  43  86 S12       29.95F
FLINT          CLOUDY    46  43  89 S7        29.90F FOG
GROSSE ILE     RAIN      41  37  87 S9        29.94F
HILLSDALE      CLOUDY    49  46  88 SW13      29.93F
HOWELL         CLOUDY    46  45  98 SW9       29.90F

CITY           SKY/WX    TMP DP  RH WIND       PRES   REMARKS
JACKSON        CLOUDY    50  45  83 SW15G25   29.92S
LAMBERTVILLE   CLOUDY    52  41  66 SW6G17    29.97S
LANSING        CLOUDY    47  45  93 SW17      29.90S FOG
LAPEER         NOT AVBL
MASON          CLOUDY    48  46  91 SW10G18   29.90F
MONROE         CLOUDY    48  43  81 SW10      29.94F
MT. CLEMENS    CLOUDY    47  47  99 SW10      29.91F
PONTIAC        CLOUDY    45  42  89 SW8       29.91F
PORT HOPE        N/A     43  41  93 SW8       29.85F
PORT HURON     CLOUDY    43  41  93 S7        29.93S FOG
TRI CITIES     CLOUDY    46  44  93 SW13      29.87S FOG
YPSILANTI      CLOUDY    48  42  80 S12       29.94F
$$
MIZ043>046-050>051-056>058-064>065-071>073-077>080-230300-
SOUTHWEST LOWER MICHIGAN

CITY           SKY/WX    TMP DP  RH WIND       PRES   REMARKS
BATTLE CREEK   CLOUDY    48  44  86 SW16      29.91S
BENTON HARBOR  CLOUDY    50  46  86 S10       29.89S
BIG RAPIDS     CLOUDY    41  41 100 SW5       29.83S FOG
COLDWATER      CLOUDY    50  46  85 SW13      29.93S
HOLLAND        CLOUDY    52  45  77 SW24G31   29.87S
GRAND RAPIDS   CLOUDY    43  42  97 SW13      29.88R FOG
KALAMAZOO      CLOUDY    44  42  93 S10       29.91S FOG
MARSHALL       CLOUDY    46  45  93 SW10G16   29.91S
MUSKEGON       CLOUDY    48  45  89 SW13      29.85F
$$
MIZ016>042-230300-
NORTHERN LOWER MICHIGAN

CITY           SKY/WX    TMP DP  RH WIND       PRES   REMARKS
ALPENA         CLOUDY    38  38 100 S8        29.82R FOG
BEAVER ISLAND  CLOUDY    40  37  92 W12       29.77S FOG
BELLAIRE       CLOUDY    40  38  96 SW5       29.80F FOG
CADILLAC       FOG       38  38 100 SW10      29.80S VSB 1/2
CHARLEVOIX     CLOUDY    40  40 100 SW7       29.80F FOG
FRANKFORT      CLOUDY    43  42  97 SW8       29.80S FOG
GAYLORD        FOG       37  37 100 SW9       29.78R VSB 1/2
GRAYLING       FOG       38  38 100 SW6       29.81S VSB 1
HARBOR SPRINGS FOG       38  38 100 SW7       29.77F VSB 1
HOUGHTON LAKE  FOG       38  37  97 S7        29.82S VSB 1/2
MANISTEE       CLOUDY    45  39  81 SW10      29.82S
OSCODA         FOG       38  38 100 SW7       29.84S VSB 1
PELLSTON       CLOUDY    41  39  93 CALM      29.78S FOG
TRAVERSE CITY  CLOUDY    39  38  96 CALM      29.79S FOG
$$
MIZ007>008-015-230300-
EASTERN UPPER MICHIGAN

CITY           SKY/WX    TMP DP  RH WIND       PRES   REMARKS
KINROSS        CLOUDY    36  34  93 CALM      29.76S
MACKINAC ISLAN CLOUDY    39  38  99 W10       29.77R FOG
NEWBERRY       MOCLDY    33  31  94 S8        29.75S
S. S. MARIE    CLOUDY    35  31  85 SW3       29.76R
$$
MIZ004>006-011>014-085-230300-
CENTRAL UPPER MICHIGAN

CITY           SKY/WX    TMP DP  RH WIND       PRES   REMARKS
MANISTIQUE     PTCLDY    33  33  98 S5        29.75S FOG
ESCANABA       CLOUDY    36  32  87 S6        29.75R
MENOMINEE      CLOUDY    37  36  93 SW10      29.76S
SAWYER-GWINN   CLOUDY    32  30  93 CALM      29.71S
$$
MIZ001>003-009>011-084-230300-
WESTERN UPPER MICHIGAN

CITY           SKY/WX    TMP DP  RH WIND       PRES   REMARKS
IRON MOUNTAIN  CLOUDY    35  31  85 S5        29.70S
HOUGHTON       CLOUDY    35  30  82 SE3       29.66S
COPPER HARBOR    N/A     37  31  78 SW7       29.69R
IRONWOOD       CLOUDY    34  32  93 S7        29.62S
$$

ABBREVIATIONS USED IN REMARKS
   TC - TEMPERATURE IN CELSIUS
  WCI - WIND CHILL INDEX
   HX - HEAT INDEX
  VSB - VISIBILITY




USA.gov is the U.S. government's official web portal to all federal, state and local government web resources and services.